| time (UTC) | temp F | wind direction | speed MPH | gust MPH | rain 1hr in | rain 24hr in | rain mn in | humidity % | barometer mb |
| 20260508170034 | 58 | 217 | 3.0 | 12.0 | 0.00 | 0.02 | 0.02 | 51 | 1012.2 |
| 20260508165515 | 57 | 178 | 5.0 | 12.0 | 0.00 | 0.02 | 0.02 | 48 | 1012.3 |
| 20260508165015 | 58 | 282 | 5.0 | 11.0 | 0.00 | 0.02 | 0.02 | 47 | 1012.1 |
| 20260508164530 | 59 | 155 | 4.0 | 9.0 | 0.00 | 0.02 | 0.02 | 46 | 1012.0 |
| 20260508164018 | 59 | 298 | 2.0 | 9.0 | 0.00 | 0.02 | 0.02 | 48 | 1012.2 |
| 20260508163517 | 58 | 275 | 2.0 | 12.0 | 0.00 | 0.02 | 0.02 | 47 | 1012.3 |
| 20260508163050 | 58 | 344 | 4.0 | 13.0 | 0.00 | 0.02 | 0.02 | 48 | 1012.6 |
| 20260508162517 | 58 | 183 | 5.0 | 13.0 | 0.00 | 0.02 | 0.02 | 46 | 1012.6 |
| 20260508162016 | 58 | 158 | 4.0 | 10.0 | 0.00 | 0.02 | 0.02 | 49 | 1012.6 |
| 20260508161530 | 58 | 153 | 3.0 | 10.0 | 0.00 | 0.02 | 0.02 | 47 | 1012.6 |
| 20260508161117 | 57 | 225 | 4.0 | 9.0 | 0.00 | 0.02 | 0.02 | 48 | 1012.8 |
| 20260508160518 | 57 | 126 | 1.0 | 10.0 | 0.00 | 0.02 | 0.02 | 47 | 1012.8 |
| 20260508160035 | 57 | 238 | 2.0 | 10.0 | 0.00 | 0.02 | 0.02 | 47 | 1013.1 |
| 20260508155515 | 58 | 210 | 4.0 | 9.0 | 0.00 | 0.02 | 0.02 | 46 | 1013.2 |
| 20260508155015 | 59 | 85 | 2.0 | 12.0 | 0.00 | 0.02 | 0.02 | 48 | 1013.2 |
| 20260508154530 | 58 | 182 | 4.0 | 12.0 | 0.00 | 0.02 | 0.02 | 44 | 1013.1 |
| 20260508154016 | 58 | 344 | 4.0 | 12.0 | 0.00 | 0.02 | 0.02 | 46 | 1013.2 |
| 20260508153515 | 58 | 259 | 4.0 | 10.0 | 0.00 | 0.02 | 0.02 | 44 | 1013.3 |
| 20260508153033 | 57 | 228 | 2.0 | 11.0 | 0.00 | 0.02 | 0.02 | 46 | 1013.2 |
| 20260508152516 | 57 | 182 | 3.0 | 11.0 | 0.00 | 0.02 | 0.02 | 46 | 1013.1 |
| 20260508152015 | 57 | 171 | 4.0 | 10.0 | 0.00 | 0.02 | 0.02 | 47 | 1013.0 |
| 20260508151536 | 57 | 309 | 1.0 | 9.0 | 0.00 | 0.02 | 0.02 | 48 | 1013.1 |
| 20260508151018 | 57 | 337 | 3.0 | 9.0 | 0.00 | 0.02 | 0.02 | 47 | 1013.2 |
| 20260508150516 | 56 | 178 | 2.0 | 10.0 | 0.00 | 0.02 | 0.02 | 45 | 1013.3 |
| 20260508150032 | 56 | 265 | 1.0 | 10.0 | 0.00 | 0.02 | 0.02 | 47 | 1013.4 |
| 20260508145513 | 56 | 323 | 3.0 | 10.0 | 0.00 | 0.02 | 0.02 | 49 | 1013.4 |
| 20260508145012 | 56 | 38 | 3.0 | 9.0 | 0.00 | 0.02 | 0.02 | 50 | 1013.5 |
| 20260508144535 | 55 | 78 | 3.0 | 10.0 | 0.00 | 0.02 | 0.02 | 51 | 1013.6 |
| 20260508144014 | 55 | 244 | 4.0 | 10.0 | 0.00 | 0.02 | 0.02 | 54 | 1013.7 |
| 20260508143513 | 56 | 265 | 4.0 | 9.0 | 0.00 | 0.02 | 0.02 | 53 | 1013.9 |
| 20260508143032 | 56 | 291 | 2.0 | 7.0 | 0.00 | 0.02 | 0.02 | 58 | 1014.0 |
| 20260508142512 | 55 | 232 | 2.0 | 8.0 | 0.00 | 0.02 | 0.02 | 63 | 1014.0 |
| 20260508142013 | 54 | 304 | 1.0 | 8.0 | 0.00 | 0.02 | 0.02 | 63 | 1014.0 |
| 20260508141530 | 54 | 273 | 2.0 | 6.0 | 0.00 | 0.02 | 0.02 | 61 | 1014.0 |
| 20260508141013 | 54 | 169 | 2.0 | 6.0 | 0.00 | 0.02 | 0.02 | 60 | 1013.9 |
| 20260508140517 | 54 | 265 | 2.0 | 6.0 | 0.00 | 0.02 | 0.02 | 61 | 1013.9 |
| 20260508140033 | 53 | 277 | 1.0 | 8.0 | 0.00 | 0.02 | 0.02 | 65 | 1013.9 |
| 20260508135515 | 53 | 158 | 3.0 | 8.0 | 0.00 | 0.02 | 0.02 | 63 | 1013.8 |
| 20260508135016 | 53 | 56 | 2.0 | 8.0 | 0.00 | 0.02 | 0.02 | 65 | 1013.8 |
| 20260508134536 | 53 | 115 | 2.0 | 8.0 | 0.00 | 0.02 | 0.02 | 66 | 1013.8 |
| 20260508134012 | 53 | 255 | 2.0 | 5.0 | 0.00 | 0.02 | 0.02 | 63 | 1013.9 |
| 20260508133518 | 53 | 347 | 2.0 | 10.0 | 0.00 | 0.02 | 0.02 | 65 | 1013.9 |
| 20260508133030 | 52 | 309 | 1.0 | 10.0 | 0.00 | 0.02 | 0.02 | 65 | 1013.9 |
| 20260508132515 | 52 | 284 | 2.0 | 9.0 | 0.00 | 0.02 | 0.02 | 65 | 1013.9 |
| 20260508132014 | 52 | 329 | 1.0 | 8.0 | 0.00 | 0.02 | 0.02 | 69 | 1014.0 |
| 20260508131531 | 51 | 325 | 2.0 | 8.0 | 0.00 | 0.02 | 0.02 | 68 | 1014.1 |
| 20260508131015 | 51 | 0 | 2.0 | 8.0 | 0.00 | 0.02 | 0.02 | 70 | 1014.0 |
| 20260508130514 | 51 | 325 | 2.0 | 8.0 | 0.00 | 0.02 | 0.02 | 71 | 1013.8 |
| 20260508130032 | 50 | 315 | 2.0 | 8.0 | 0.00 | 0.02 | 0.02 | 71 | 1013.9 |
| 20260508125530 | 50 | 315 | 2.0 | 9.0 | 0.00 | 0.02 | 0.02 | 71 | 1013.8 |
| 20260508125015 | 50 | 282 | 1.0 | 9.0 | 0.00 | 0.02 | 0.02 | 73 | 1013.9 |
| 20260508124531 | 50 | 344 | 3.0 | 11.0 | 0.00 | 0.02 | 0.02 | 73 | 1014.0 |
| 20260508124015 | 50 | 325 | 3.0 | 11.0 | 0.00 | 0.02 | 0.02 | 73 | 1014.0 |
| 20260508123514 | 50 | 336 | 3.0 | 9.0 | 0.00 | 0.02 | 0.02 | 73 | 1013.9 |
| 20260508123034 | 50 | 225 | 2.0 | 10.0 | 0.00 | 0.02 | 0.02 | 74 | 1013.9 |
| 20260508122514 | 50 | 51 | 3.0 | 10.0 | 0.00 | 0.02 | 0.02 | 74 | 1013.8 |
| 20260508122015 | 49 | 316 | 2.0 | 8.0 | 0.00 | 0.02 | 0.02 | 75 | 1013.9 |
| 20260508121534 | 49 | 334 | 1.0 | 7.0 | 0.00 | 0.02 | 0.02 | 76 | 1013.9 |
| 20260508121014 | 49 | 280 | 2.0 | 7.0 | 0.00 | 0.02 | 0.02 | 75 | 1013.9 |
| 20260508120513 | 49 | 225 | 2.0 | 6.0 | 0.00 | 0.02 | 0.02 | 77 | 1013.8 |
| 20260508120032 | 48 | 306 | 3.0 | 6.0 | 0.00 | 0.02 | 0.02 | 77 | 1013.6 |
| 20260508115515 | 48 | 178 | 2.0 | 6.0 | 0.00 | 0.02 | 0.02 | 77 | 1013.6 |
| 20260508115012 | 48 | 328 | 2.0 | 6.0 | 0.00 | 0.02 | 0.02 | 79 | 1013.6 |
| 20260508114532 | 48 | 321 | 2.0 | 6.0 | 0.00 | 0.02 | 0.02 | 78 | 1013.4 |
| 20260508114014 | 48 | 279 | 2.0 | 4.0 | 0.00 | 0.02 | 0.02 | 79 | 1013.4 |
| 20260508113514 | 48 | 334 | 1.0 | 5.0 | 0.00 | 0.02 | 0.02 | 80 | 1013.0 |
| 20260508113030 | 47 | 178 | 1.0 | 5.0 | 0.00 | 0.02 | 0.02 | 82 | 1013.1 |
| 20260508112513 | 47 | 141 | 2.0 | 5.0 | 0.00 | 0.02 | 0.02 | 83 | 1013.0 |
| 20260508112012 | 46 | 296 | 1.0 | 5.0 | 0.00 | 0.02 | 0.02 | 85 | 1013.0 |
| 20260508111534 | 46 | 316 | 2.0 | 5.0 | 0.00 | 0.02 | 0.02 | 85 | 1012.9 |
| 20260508111014 | 46 | 212 | 2.0 | 5.0 | 0.00 | 0.02 | 0.02 | 87 | 1012.8 |
| 20260508110514 | 45 | 9 | 1.0 | 5.0 | 0.00 | 0.02 | 0.02 | 89 | 1012.6 |
| 20260508110038 | 45 | 325 | 1.0 | 3.0 | 0.00 | 0.02 | 0.02 | 90 | 1012.7 |
| 20260508105516 | 44 | 0 | 1.0 | 4.0 | 0.00 | 0.02 | 0.02 | 91 | 1012.5 |
| 20260508105015 | 44 | 286 | 1.0 | 4.0 | 0.00 | 0.02 | 0.02 | 91 | 1012.5 |
| 20260508104528 | 43 | 317 | 1.0 | 3.0 | 0.00 | 0.02 | 0.02 | 91 | 1012.2 |
| 20260508104014 | 43 | 265 | 1.0 | 2.0 | 0.00 | 0.02 | 0.02 | 91 | 1012.2 |
| 20260508103515 | 43 | 325 | 0.0 | 2.0 | 0.00 | 0.02 | 0.02 | 91 | 1012.2 |
| 20260508103036 | 43 | 0 | 0.0 | 3.0 | 0.00 | 0.02 | 0.02 | 90 | 1012.2 |
| 20260508102517 | 43 | 265 | 1.0 | 3.0 | 0.00 | 0.02 | 0.02 | 90 | 1012.1 |
| 20260508102013 | 43 | 325 | 1.0 | 3.0 | 0.00 | 0.02 | 0.02 | 90 | 1012.0 |
| 20260508101537 | 43 | 309 | 1.0 | 3.0 | 0.00 | 0.02 | 0.02 | 90 | 1012.1 |
| 20260508101015 | 43 | 9 | 1.0 | 3.0 | 0.00 | 0.02 | 0.02 | 89 | 1012.1 |
| 20260508100514 | 43 | 330 | 1.0 | 3.0 | 0.00 | 0.02 | 0.02 | 89 | 1012.0 |
| 20260508100030 | 43 | 334 | 1.0 | 3.0 | 0.00 | 0.02 | 0.02 | 89 | 1012.0 |
| 20260508095515 | 44 | 9 | 1.0 | 3.0 | 0.00 | 0.02 | 0.02 | 88 | 1011.8 |
| 20260508095017 | 44 | 309 | 1.0 | 3.0 | 0.00 | 0.02 | 0.02 | 88 | 1011.8 |
| 20260508094531 | 44 | 334 | 1.0 | 3.0 | 0.00 | 0.02 | 0.02 | 88 | 1011.9 |
| 20260508094015 | 44 | 313 | 1.0 | 3.0 | 0.00 | 0.02 | 0.02 | 88 | 1011.9 |
| 20260508093515 | 44 | 314 | 2.0 | 3.0 | 0.00 | 0.02 | 0.02 | 88 | 1011.9 |
| 20260508093048 | 44 | 314 | 1.0 | 3.0 | 0.00 | 0.02 | 0.02 | 88 | 1011.8 |
| 20260508092516 | 44 | 304 | 1.0 | 3.0 | 0.00 | 0.02 | 0.02 | 88 | 1011.7 |
| 20260508092017 | 44 | 286 | 1.0 | 2.0 | 0.00 | 0.02 | 0.02 | 88 | 1011.7 |
| 20260508091533 | 44 | 309 | 0.0 | 2.0 | 0.00 | 0.02 | 0.02 | 88 | 1011.7 |
| 20260508091015 | 44 | 0 | 0.0 | 2.0 | 0.00 | 0.02 | 0.02 | 88 | 1011.6 |
| 20260508090515 | 44 | 103 | 0.0 | 3.0 | 0.00 | 0.02 | 0.02 | 88 | 1011.6 |
| 20260508090053 | 44 | 0 | 0.0 | 3.0 | 0.00 | 0.02 | 0.02 | 88 | 1011.6 |
| 20260508085516 | 44 | 273 | 1.0 | 3.0 | 0.00 | 0.08 | 0.02 | 88 | 1011.5 |
| 20260508085014 | 44 | 165 | 0.0 | 4.0 | 0.00 | 0.08 | 0.02 | 88 | 1011.5 |
| 20260508084535 | 44 | 0 | 1.0 | 4.0 | 0.00 | 0.08 | 0.02 | 88 | 1011.5 |
| 20260508084018 | 44 | 265 | 1.0 | 4.0 | 0.00 | 0.08 | 0.02 | 88 | 1011.5 |
| 20260508083516 | 44 | 309 | 1.0 | 3.0 | 0.00 | 0.08 | 0.02 | 88 | 1011.6 |
| 20260508083033 | 44 | 313 | 1.0 | 3.0 | 0.00 | 0.08 | 0.02 | 89 | 1011.6 |
| 20260508082514 | 44 | 9 | 1.0 | 3.0 | 0.00 | 0.08 | 0.02 | 89 | 1011.4 |
| 20260508082015 | 43 | 291 | 0.0 | 3.0 | 0.00 | 0.08 | 0.02 | 89 | 1011.5 |
| 20260508081535 | 43 | 265 | 1.0 | 3.0 | 0.00 | 0.08 | 0.02 | 89 | 1011.5 |
| 20260508081018 | 43 | 319 | 0.0 | 3.0 | 0.00 | 0.08 | 0.02 | 89 | 1011.5 |
| 20260508080516 | 43 | 0 | 0.0 | 3.0 | 0.00 | 0.08 | 0.02 | 88 | 1011.6 |
| 20260508080038 | 43 | 0 | 0.0 | 3.0 | 0.00 | 0.08 | 0.02 | 88 | 1011.6 |
| 20260508075515 | 43 | 0 | 0.0 | 2.0 | 0.00 | 0.11 | 0.02 | 88 | 1011.5 |
| 20260508075018 | 43 | 0 | 0.0 | 2.0 | 0.00 | 0.11 | 0.02 | 88 | 1011.5 |
| 20260508074536 | 43 | 304 | 0.0 | 4.0 | 0.00 | 0.11 | 0.02 | 88 | 1011.5 |
| 20260508074016 | 43 | 0 | 1.0 | 5.0 | 0.01 | 0.11 | 0.02 | 88 | 1011.6 |
| 20260508073518 | 44 | 321 | 1.0 | 5.0 | 0.01 | 0.11 | 0.02 | 88 | 1011.8 |
| 20260508073032 | 44 | 305 | 1.0 | 4.0 | 0.01 | 0.11 | 0.02 | 88 | 1011.8 |
| 20260508072517 | 44 | 296 | 1.0 | 5.0 | 0.02 | 0.11 | 0.02 | 87 | 1011.8 |
| 20260508072015 | 44 | 330 | 1.0 | 5.0 | 0.02 | 0.11 | 0.02 | 87 | 1011.8 |
| 20260508071530 | 44 | 309 | 1.0 | 6.0 | 0.02 | 0.11 | 0.02 | 87 | 1011.8 |
| 20260508071015 | 44 | 31 | 1.0 | 6.0 | 0.02 | 0.11 | 0.02 | 86 | 1011.8 |
| 20260508070518 | 44 | 0 | 0.0 | 3.0 | 0.02 | 0.11 | 0.02 | 86 | 1011.9 |
| 20260508070036 | 44 | 325 | 1.0 | 4.0 | 0.02 | 0.11 | 0.02 | 85 | 1012.1 |
| 20260508065515 | 44 | 309 | 1.0 | 4.0 | 0.02 | 0.15 | 0.02 | 84 | 1012.2 |
| 20260508065017 | 44 | 17 | 1.0 | 4.0 | 0.02 | 0.15 | 0.02 | 83 | 1012.2 |
| 20260508064535 | 44 | 325 | 1.0 | 5.0 | 0.02 | 0.15 | 0.02 | 82 | 1012.2 |
| 20260508064016 | 45 | 309 | 2.0 | 5.0 | 0.01 | 0.14 | 0.01 | 80 | 1012.3 |
| 20260508063519 | 45 | 328 | 2.0 | 11.0 | 0.01 | 0.14 | 0.01 | 78 | 1012.2 |
| 20260508063033 | 46 | 286 | 3.0 | 15.0 | 0.01 | 0.14 | 0.01 | 74 | 1012.3 |
| 20260508062516 | 47 | 325 | 6.0 | 15.0 | 0.00 | 0.13 | 0.00 | 67 | 1012.3 |
| 20260508062016 | 48 | 277 | 4.0 | 11.0 | 0.00 | 0.13 | 0.00 | 61 | 1012.1 |
| 20260508061530 | 48 | 305 | 4.0 | 11.0 | 0.00 | 0.13 | 0.00 | 57 | 1011.8 |
| 20260508061017 | 48 | 292 | 3.0 | 8.0 | 0.00 | 0.13 | 0.00 | 56 | 1011.5 |
| 20260508060522 | 47 | 325 | 2.0 | 8.0 | 0.00 | 0.13 | 0.00 | 60 | 1011.5 |
| 20260508060030 | 47 | 291 | 2.0 | 7.0 | 0.00 | 0.13 | 0.00 | 63 | 1011.3 |
| 20260508055516 | 46 | 298 | 2.0 | 4.0 | 0.00 | 0.14 | 0.00 | 64 | 1010.3 |
| 20260508055019 | 46 | 0 | 1.0 | 4.0 | 0.00 | 0.14 | 0.00 | 68 | 1009.9 |
| 20260508054538 | 45 | 59 | 1.0 | 4.0 | 0.00 | 0.14 | 0.00 | 70 | 1009.8 |
| 20260508054017 | 45 | 9 | 1.0 | 3.0 | 0.00 | 0.14 | 0.00 | 72 | 1009.8 |
| 20260508053516 | 45 | 9 | 0.0 | 3.0 | 0.00 | 0.14 | 0.00 | 78 | 1009.8 |
| 20260508053031 | 45 | 26 | 0.0 | 2.0 | 0.00 | 0.14 | 0.00 | 77 | 1009.8 |
| 20260508052517 | 45 | 334 | 0.0 | 3.0 | 0.00 | 0.14 | 0.00 | 80 | 1009.8 |
| 20260508052017 | 45 | 0 | 1.0 | 3.0 | 0.00 | 0.14 | 0.00 | 80 | 1009.7 |
| 20260508051534 | 44 | 26 | 1.0 | 2.0 | 0.00 | 0.14 | 0.00 | 82 | 1009.8 |
| 20260508051016 | 44 | 30 | 0.0 | 2.0 | 0.00 | 0.14 | 0.00 | 83 | 1009.9 |
| 20260508050516 | 44 | 34 | 0.0 | 2.0 | 0.00 | 0.14 | 0.00 | 83 | 1010.0 |
| 20260508050030 | 44 | 0 | 0.0 | 2.0 | 0.00 | 0.14 | 0.00 | 83 | 1010.0 |
| 20260508045515 | 43 | 9 | 0.0 | 2.0 | 0.00 | 0.14 | 0.00 | 82 | 1010.0 |
| 20260508045016 | 43 | 80 | 0.0 | 2.0 | 0.00 | 0.14 | 0.00 | 82 | 1009.8 |
| 20260508044532 | 43 | 309 | 0.0 | 2.0 | 0.00 | 0.14 | 0.00 | 82 | 1009.7 |
| 20260508044021 | 43 | 334 | 1.0 | 2.0 | 0.00 | 0.14 | 0.00 | 80 | 1009.6 |
| 20260508043520 | 43 | 0 | 0.0 | 2.0 | 0.00 | 0.14 | 0.00 | 81 | 1009.5 |
| 20260508043031 | 43 | 0 | 1.0 | 2.0 | 0.00 | 0.14 | 0.00 | 80 | 1009.6 |
| 20260508042516 | 44 | 59 | 0.0 | 2.0 | 0.00 | 0.14 | 0.00 | 80 | 1009.8 |
| 20260508042016 | 44 | 44 | 1.0 | 4.0 | 0.00 | 0.14 | 0.00 | 80 | 1009.7 |
| 20260508041542 | 44 | 64 | 1.0 | 4.0 | 0.00 | 0.14 | 0.00 | 81 | 1009.7 |
| 20260508041014 | 43 | 0 | 1.0 | 3.0 | 0.00 | 0.14 | 0.00 | 82 | 1009.7 |
| 20260508040517 | 43 | 93 | 1.0 | 3.0 | 0.00 | 0.14 | 0.00 | 83 | 1009.7 |
| 20260508040035 | 43 | 72 | 1.0 | 3.0 | 0.00 | 0.14 | 0.00 | 81 | 1009.7 |
| 20260508035516 | 44 | 68 | 1.0 | 3.0 | 0.00 | 0.14 | 0.14 | 82 | 1009.8 |
| 20260508035017 | 44 | 93 | 1.0 | 3.0 | 0.00 | 0.14 | 0.14 | 82 | 1009.9 |
| 20260508034532 | 44 | 55 | 1.0 | 3.0 | 0.00 | 0.14 | 0.14 | 82 | 1009.9 |
| 20260508034015 | 44 | 67 | 1.0 | 3.0 | 0.00 | 0.14 | 0.14 | 81 | 1009.9 |
| 20260508033515 | 44 | 51 | 1.0 | 3.0 | 0.00 | 0.14 | 0.14 | 81 | 1010.0 |
| 20260508033038 | 44 | 44 | 1.0 | 2.0 | 0.00 | 0.14 | 0.14 | 81 | 1009.9 |
| 20260508032518 | 44 | 338 | 0.0 | 2.0 | 0.00 | 0.14 | 0.14 | 81 | 1009.9 |
| 20260508032015 | 45 | 0 | 0.0 | 3.0 | 0.00 | 0.14 | 0.14 | 80 | 1009.8 |
| 20260508031533 | 45 | 9 | 1.0 | 3.0 | 0.00 | 0.14 | 0.14 | 78 | 1009.6 |
| 20260508031015 | 45 | 64 | 1.0 | 2.0 | 0.00 | 0.14 | 0.14 | 79 | 1009.6 |
| 20260508030518 | 45 | 59 | 1.0 | 2.0 | 0.00 | 0.14 | 0.14 | 79 | 1009.6 |
| 20260508030039 | 45 | 51 | 1.0 | 2.0 | 0.00 | 0.14 | 0.14 | 78 | 1009.6 |
| 20260508025518 | 45 | 38 | 0.0 | 2.0 | 0.00 | 0.14 | 0.14 | 78 | 1009.7 |
| 20260508025016 | 45 | 41 | 1.0 | 2.0 | 0.00 | 0.14 | 0.14 | 77 | 1009.7 |
| 20260508024530 | 45 | 9 | 0.0 | 2.0 | 0.00 | 0.14 | 0.14 | 78 | 1009.7 |
| 20260508024016 | 45 | 26 | 1.0 | 2.0 | 0.00 | 0.14 | 0.14 | 76 | 1009.6 |
| 20260508023516 | 45 | 26 | 1.0 | 2.0 | 0.00 | 0.14 | 0.14 | 75 | 1009.6 |
| 20260508023040 | 46 | 338 | 0.0 | 2.0 | 0.00 | 0.14 | 0.14 | 75 | 1009.6 |
| 20260508022514 | 46 | 9 | 0.0 | 2.0 | 0.00 | 0.14 | 0.14 | 74 | 1009.6 |
| 20260508022016 | 46 | 0 | 0.0 | 2.0 | 0.00 | 0.14 | 0.14 | 72 | 1009.6 |
| 20260508021537 | 46 | 51 | 1.0 | 2.0 | 0.00 | 0.14 | 0.14 | 71 | 1009.7 |
| 20260508021017 | 46 | 0 | 0.0 | 2.0 | 0.00 | 0.14 | 0.14 | 71 | 1009.7 |
| 20260508020520 | 47 | 9 | 0.0 | 2.0 | 0.00 | 0.14 | 0.14 | 70 | 1009.7 |
| 20260508020029 | 47 | 51 | 0.0 | 2.0 | 0.00 | 0.14 | 0.14 | 69 | 1009.6 |
| 20260508015516 | 47 | 26 | 0.0 | 3.0 | 0.00 | 0.16 | 0.14 | 68 | 1009.6 |
| 20260508015015 | 48 | 334 | 0.0 | 3.0 | 0.00 | 0.16 | 0.14 | 67 | 1009.6 |
| 20260508014534 | 48 | 30 | 1.0 | 3.0 | 0.00 | 0.16 | 0.14 | 66 | 1009.6 |
| 20260508014013 | 48 | 51 | 1.0 | 3.0 | 0.00 | 0.16 | 0.14 | 65 | 1009.6 |
| 20260508013513 | 49 | 56 | 1.0 | 2.0 | 0.00 | 0.16 | 0.14 | 64 | 1009.6 |
| 20260508013033 | 49 | 59 | 1.0 | 2.0 | 0.00 | 0.16 | 0.14 | 64 | 1009.6 |
| 20260508012518 | 49 | 51 | 0.0 | 2.0 | 0.00 | 0.16 | 0.14 | 65 | 1009.5 |
| 20260508012015 | 49 | 51 | 0.0 | 2.0 | 0.00 | 0.16 | 0.14 | 63 | 1009.5 |
| 20260508011533 | 50 | 61 | 0.0 | 2.0 | 0.00 | 0.16 | 0.14 | 64 | 1009.5 |
| 20260508011016 | 50 | 9 | 0.0 | 2.0 | 0.00 | 0.16 | 0.14 | 66 | 1009.4 |
| 20260508010517 | 51 | 9 | 0.0 | 2.0 | 0.00 | 0.16 | 0.14 | 66 | 1009.4 |
| 20260508010041 | 51 | 34 | 0.0 | 2.0 | 0.00 | 0.16 | 0.14 | 65 | 1009.4 |
| 20260508005516 | 51 | 30 | 0.0 | 2.0 | 0.00 | 0.16 | 0.14 | 62 | 1009.4 |
| 20260508005016 | 51 | 0 | 0.0 | 2.0 | 0.00 | 0.16 | 0.14 | 58 | 1009.6 |
| 20260508004533 | 52 | 9 | 0.0 | 2.0 | 0.00 | 0.16 | 0.14 | 58 | 1009.4 |
| 20260508004014 | 52 | 0 | 0.0 | 2.0 | 0.00 | 0.16 | 0.14 | 61 | 1009.2 |
| 20260508003519 | 53 | 51 | 0.0 | 2.0 | 0.00 | 0.16 | 0.14 | 62 | 1009.1 |
| 20260508003033 | 53 | 34 | 0.0 | 2.0 | 0.00 | 0.16 | 0.14 | 53 | 1009.0 |
| 20260508002516 | 54 | 51 | 0.0 | 2.0 | 0.00 | 0.16 | 0.14 | 55 | 1009.0 |
| 20260508002017 | 54 | 0 | 0.0 | 2.0 | 0.00 | 0.16 | 0.14 | 54 | 1008.9 |
| 20260508001535 | 55 | 0 | 0.0 | 2.0 | 0.00 | 0.16 | 0.14 | 51 | 1008.9 |
| 20260508001015 | 55 | 0 | 0.0 | 3.0 | 0.00 | 0.16 | 0.14 | 47 | 1008.7 |
| 20260508000516 | 55 | 34 | 0.0 | 3.0 | 0.00 | 0.16 | 0.14 | 43 | 1008.7 |
| 20260508000034 | 56 | 9 | 1.0 | 3.0 | 0.00 | 0.16 | 0.14 | 45 | 1008.8 |
| 20260507235516 | 56 | 0 | 0.0 | 4.0 | 0.00 | 0.16 | 0.14 | 43 | 1008.8 |
| 20260507235016 | 57 | 0 | 1.0 | 4.0 | 0.00 | 0.16 | 0.14 | 46 | 1008.8 |
| 20260507234538 | 57 | 137 | 0.0 | 4.0 | 0.00 | 0.16 | 0.14 | 44 | 1008.8 |
| 20260507234016 | 57 | 340 | 1.0 | 6.0 | 0.00 | 0.16 | 0.14 | 41 | 1008.7 |
| 20260507233517 | 58 | 342 | 1.0 | 6.0 | 0.00 | 0.16 | 0.14 | 40 | 1008.7 |
| 20260507233032 | 58 | 26 | 0.0 | 6.0 | 0.00 | 0.16 | 0.14 | 40 | 1008.7 |
| 20260507232513 | 58 | 286 | 2.0 | 6.0 | 0.00 | 0.16 | 0.14 | 40 | 1008.6 |
| 20260507232019 | 58 | 0 | 2.0 | 7.0 | 0.00 | 0.16 | 0.14 | 38 | 1008.6 |
| 20260507231531 | 58 | 279 | 3.0 | 7.0 | 0.00 | 0.16 | 0.14 | 36 | 1008.6 |
| 20260507231016 | 58 | 119 | 2.0 | 7.0 | 0.00 | 0.16 | 0.14 | 38 | 1008.5 |
| 20260507230517 | 58 | 9 | 3.0 | 7.0 | 0.00 | 0.16 | 0.14 | 37 | 1008.6 |
| 20260507230035 | 59 | 273 | 3.0 | 10.0 | 0.00 | 0.16 | 0.14 | 38 | 1008.5 |
| 20260507225516 | 59 | 341 | 3.0 | 10.0 | 0.00 | 0.16 | 0.14 | 38 | 1008.4 |
| 20260507225018 | 59 | 11 | 2.0 | 8.0 | 0.00 | 0.16 | 0.14 | 38 | 1008.3 |
| 20260507224550 | 59 | 280 | 2.0 | 8.0 | 0.00 | 0.16 | 0.14 | 36 | 1008.4 |
| 20260507224016 | 60 | 277 | 2.0 | 8.0 | 0.00 | 0.16 | 0.14 | 38 | 1008.3 |
| 20260507223516 | 60 | 337 | 1.0 | 10.0 | 0.00 | 0.16 | 0.14 | 39 | 1008.1 |
| 20260507223043 | 60 | 19 | 1.0 | 10.0 | 0.00 | 0.16 | 0.14 | 37 | 1008.2 |
| 20260507222514 | 60 | 303 | 3.0 | 10.0 | 0.00 | 0.16 | 0.14 | 36 | 1008.2 |
| 20260507222014 | 61 | 303 | 2.0 | 9.0 | 0.00 | 0.16 | 0.14 | 36 | 1008.2 |
| 20260507221537 | 61 | 280 | 1.0 | 12.0 | 0.00 | 0.16 | 0.14 | 35 | 1008.4 |
| 20260507221017 | 61 | 110 | 2.0 | 12.0 | 0.00 | 0.16 | 0.14 | 37 | 1008.3 |
| 20260507220517 | 62 | 309 | 3.0 | 9.0 | 0.00 | 0.16 | 0.14 | 36 | 1008.4 |
| 20260507220036 | 62 | 247 | 2.0 | 9.0 | 0.00 | 0.16 | 0.14 | 35 | 1008.6 |
| 20260507215516 | 62 | 291 | 2.0 | 8.0 | 0.00 | 0.16 | 0.14 | 36 | 1008.5 |
| 20260507215015 | 62 | 282 | 2.0 | 8.0 | 0.00 | 0.16 | 0.14 | 37 | 1008.3 |
| 20260507214537 | 61 | 185 | 2.0 | 10.0 | 0.00 | 0.16 | 0.14 | 37 | 1008.4 |
| 20260507214016 | 61 | 309 | 2.0 | 10.0 | 0.00 | 0.16 | 0.14 | 37 | 1008.3 |
| 20260507213517 | 61 | 310 | 3.0 | 12.0 | 0.00 | 0.16 | 0.14 | 36 | 1008.3 |
| 20260507213035 | 61 | 306 | 3.0 | 13.0 | 0.00 | 0.16 | 0.14 | 36 | 1008.3 |
| 20260507212516 | 61 | 50 | 4.0 | 13.0 | 0.00 | 0.16 | 0.14 | 38 | 1008.1 |
| 20260507212016 | 61 | 247 | 4.0 | 13.0 | 0.00 | 0.16 | 0.14 | 35 | 1008.2 |
| 20260507211532 | 61 | 75 | 5.0 | 13.0 | 0.00 | 0.16 | 0.14 | 35 | 1008.2 |
| 20260507211016 | 61 | 324 | 3.0 | 18.0 | 0.00 | 0.16 | 0.14 | 37 | 1008.2 |
| 20260507210518 | 61 | 28 | 5.0 | 18.0 | 0.00 | 0.16 | 0.14 | 35 | 1008.3 |
| 20260507205516 | 62 | 282 | 2.0 | 10.0 | 0.00 | 0.18 | 0.14 | 37 | 1008.2 |
| 20260507205018 | 62 | 330 | 2.0 | 10.0 | 0.00 | 0.18 | 0.14 | 35 | 1008.3 |
| 20260507204533 | 62 | 312 | 2.0 | 8.0 | 0.00 | 0.18 | 0.14 | 37 | 1008.2 |
| 20260507204017 | 62 | 26 | 2.0 | 8.0 | 0.00 | 0.18 | 0.14 | 39 | 1008.2 |
| 20260507203516 | 62 | 305 | 1.0 | 12.0 | 0.00 | 0.18 | 0.14 | 40 | 1008.3 |
| 20260507203032 | 61 | 93 | 3.0 | 12.0 | 0.00 | 0.18 | 0.14 | 36 | 1008.1 |
| 20260507202516 | 62 | 61 | 5.0 | 12.0 | 0.00 | 0.18 | 0.14 | 38 | 1008.1 |
| 20260507202016 | 62 | 291 | 3.0 | 9.0 | 0.00 | 0.18 | 0.14 | 35 | 1007.9 |
| 20260507201536 | 62 | 314 | 3.0 | 8.0 | 0.00 | 0.18 | 0.14 | 38 | 1008.1 |
| 20260507201016 | 62 | 291 | 3.0 | 10.0 | 0.00 | 0.18 | 0.14 | 39 | 1008.1 |
| 20260507200516 | 61 | 344 | 2.0 | 13.0 | 0.00 | 0.18 | 0.14 | 40 | 1008.2 |
| 20260507200049 | 61 | 273 | 4.0 | 13.0 | 0.00 | 0.18 | 0.14 | 36 | 1008.2 |
| 20260507195513 | 61 | 232 | 5.0 | 13.0 | 0.00 | 0.21 | 0.14 | 36 | 1008.2 |
| 20260507195017 | 61 | 129 | 3.0 | 8.0 | 0.00 | 0.21 | 0.14 | 38 | 1008.2 |
| 20260507194534 | 61 | 288 | 3.0 | 15.0 | 0.00 | 0.21 | 0.14 | 38 | 1008.5 |
| 20260507194015 | 60 | 275 | 4.0 | 15.0 | 0.00 | 0.21 | 0.14 | 38 | 1008.4 |
| 20260507193518 | 60 | 265 | 4.0 | 14.0 | 0.00 | 0.21 | 0.14 | 40 | 1008.5 |
| 20260507193059 | 61 | 317 | 3.0 | 14.0 | 0.00 | 0.21 | 0.14 | 37 | 1008.5 |
| 20260507192515 | 61 | 93 | 2.0 | 11.0 | 0.00 | 0.21 | 0.14 | 40 | 1008.7 |
| 20260507192017 | 61 | 254 | 4.0 | 13.0 | 0.00 | 0.21 | 0.14 | 37 | 1008.7 |
| 20260507191530 | 62 | 338 | 3.0 | 13.0 | 0.00 | 0.21 | 0.14 | 36 | 1008.7 |
| 20260507191016 | 62 | 146 | 2.0 | 9.0 | 0.00 | 0.21 | 0.14 | 45 | 1008.8 |
| 20260507190518 | 61 | 196 | 2.0 | 10.0 | 0.00 | 0.21 | 0.14 | 44 | 1008.8 |
| 20260507190038 | 60 | 312 | 3.0 | 10.0 | 0.00 | 0.21 | 0.14 | 38 | 1008.9 |
| 20260507185514 | 61 | 178 | 1.0 | 8.0 | 0.00 | 0.21 | 0.14 | 39 | 1009.0 |
| 20260507185016 | 60 | 57 | 2.0 | 8.0 | 0.00 | 0.21 | 0.14 | 42 | 1009.0 |
| 20260507184532 | 60 | 219 | 2.0 | 8.0 | 0.00 | 0.21 | 0.14 | 41 | 1009.0 |
| 20260507184015 | 60 | 342 | 2.0 | 11.0 | 0.00 | 0.21 | 0.14 | 42 | 1009.2 |
| 20260507183514 | 60 | 291 | 4.0 | 11.0 | 0.00 | 0.21 | 0.14 | 40 | 1009.2 |
| 20260507183039 | 60 | 230 | 3.0 | 8.0 | 0.00 | 0.21 | 0.14 | 41 | 1009.0 |
| 20260507182515 | 59 | 187 | 2.0 | 9.0 | 0.00 | 0.21 | 0.14 | 40 | 1009.2 |
| 20260507182015 | 59 | 209 | 3.0 | 10.0 | 0.00 | 0.21 | 0.14 | 37 | 1009.4 |
| 20260507181532 | 59 | 309 | 2.0 | 10.0 | 0.00 | 0.21 | 0.14 | 40 | 1009.4 |
| 20260507181019 | 59 | 307 | 2.0 | 9.0 | 0.00 | 0.21 | 0.14 | 42 | 1009.4 |
| 20260507180515 | 59 | 221 | 3.0 | 10.0 | 0.00 | 0.21 | 0.14 | 41 | 1009.4 |
| 20260507180031 | 59 | 342 | 5.0 | 10.0 | 0.00 | 0.21 | 0.14 | 38 | 1009.5 |
| 20260507175515 | 59 | 324 | 5.0 | 10.0 | 0.00 | 0.24 | 0.14 | 40 | 1009.5 |
| 20260507175019 | 58 | 215 | 2.0 | 12.0 | 0.00 | 0.24 | 0.14 | 41 | 1009.5 |
| 20260507174534 | 58 | 9 | 2.0 | 12.0 | 0.00 | 0.24 | 0.14 | 43 | 1009.6 |
| 20260507174015 | 58 | 24 | 6.0 | 12.0 | 0.00 | 0.24 | 0.14 | 40 | 1009.7 |
| 20260507173520 | 58 | 249 | 4.0 | 13.0 | 0.00 | 0.24 | 0.14 | 39 | 1009.9 |
| 20260507173030 | 58 | 93 | 3.0 | 13.0 | 0.00 | 0.24 | 0.14 | 39 | 1009.9 |
| 20260507172518 | 58 | 327 | 4.0 | 13.0 | 0.00 | 0.24 | 0.14 | 42 | 1010.0 |
| 20260507172015 | 58 | 229 | 3.0 | 13.0 | 0.00 | 0.24 | 0.14 | 43 | 1010.0 |
| 20260507171534 | 58 | 247 | 4.0 | 13.0 | 0.00 | 0.24 | 0.14 | 40 | 1009.9 |
| 20260507171015 | 58 | 77 | 5.0 | 13.0 | 0.00 | 0.24 | 0.14 | 46 | 1010.2 |
| 20260507170516 | 58 | 158 | 5.0 | 12.0 | 0.00 | 0.24 | 0.14 | 40 | 1010.4 |